Regional Weather Roundup
Issued by NWS

Home | Current Version | Previous Version | Text Only | Print | Product List | Glossary On
Versions: 1 2 3 4 5 6 7 8 9 10 11 12 13 14 15 16 17 18 19 20 21 22 23 24 25 26 27 28 29 30 31 32 33 34 35 36 37 38 39 40 41 42 43 44 45 46 47 48 49 50
000
ASUS45 KPSR 311010
RWRAZ

ARIZONA HOURLY REGIONAL WEATHER ROUNDUP
NATIONAL WEATHER SERVICE PHOENIX AZ
300 AM MST MON AUG 31 2015

NOTE: FAIR INDICATES FEW OR NO CLOUDS BELOW 12,000 FEET WITH NO
SIGNIFICANT WEATHER AND/OR OBSTRUCTIONS TO VISIBILITY.

AZZ001>003-036-311100-
NORTHWEST ARIZONA

CITY           SKY/WX    TMP DP  RH WIND       PRES   REMARKS
BULLHEAD CITY  FAIR      90  39  17 SE5       29.73S
KINGMAN        FAIR      75  40  28 SE8       29.94S
$$

AZZ004>008-015-016-018-311100-
NORTH CENTRAL ARIZONA

CITY           SKY/WX    TMP DP  RH WIND       PRES   REMARKS
GRAND CANYON     N/A    N/A N/A N/A MISG      30.23S
WILLIAMS       FAIR      59  52  77 S12G18    30.28S
PRESCOTT       FAIR      66  56  70 S3        30.11S
FLAGSTAFF      FAIR      52  52 100 CALM      30.28F
PAYSON         CLOUDY    70  55  60 VRB3      30.16R
PAGE           FAIR      67  59  75 S3        30.08R
$$

AZZ009>014-017-311100-
NORTHEAST ARIZONA

CITY           SKY/WX    TMP DP  RH WIND       PRES   REMARKS
WINSLOW        FAIR      62  60  93 W5        30.17R
SAINT JOHNS    FAIR      59  54  83 S3        30.20R
WINDOW ROCK    FAIR      59  50  72 N3        30.26S
SHOW LOW       FAIR      55  50  82 CALM      30.27R
$$

AZZ023-311100-
GREATER PHOENIX AREA

CITY           SKY/WX    TMP DP  RH WIND       PRES   REMARKS
PHOENIX        FAIR      89  64  43 VRB6      29.81S
BUCKEYE        FAIR      86  63  45 E8        29.81R
LUKE AFB       FAIR      88  65  46 SE8       29.80R
DEER VALLEY    FAIR      87  62  43 SE6       29.83S
SCOTTSDALE     FAIR      86  64  47 SE3       29.86R
MESA-GATEWAY   FAIR      81  66  61 E3        29.87R
$$

AZZ027-028-311100-
SOUTHWEST MARICOPA COUNTY AND PINAL COUNTY

CITY           SKY/WX    TMP DP  RH WIND       PRES   REMARKS
CASA GRANDE    FAIR      84  63  48 CALM      29.85R
GILA BEND      FAIR      87  61  40 SE6       29.78S
$$

AZZ503-504-507>509-311100-
SOUTHEAST ARIZONA

CITY           SKY/WX    TMP DP  RH WIND       PRES   REMARKS
TUCSON         FAIR      78  62  57 S8        29.98R
DAVIS-MONTHAN  FAIR      75  64  69 S8        29.96S
NOGALES        FAIR      62  57  83 CALM      30.07R
SIERRA VISTA   CLOUDY    70  56  60 NW5       30.12R
DOUGLAS        FAIR      67  61  81 E5        30.08S
SAFFORD        FAIR      76  59  55 CALM      29.98R
$$

AZZ020-021-025-026-031-311100-
SOUTHWEST ARIZONA

CITY           SKY/WX    TMP DP  RH WIND       PRES   REMARKS
YUMA           FAIR      87  66  49 S3        29.72S
$$

CAZ031-033-041-043-047-048-061-311100-
SOUTHERN CALIFORNIA

CITY           SKY/WX    TMP DP  RH WIND       PRES   REMARKS
DOWNTOWN L.A.  FAIR      70  65  84 SE3       29.84S
L.A. AIRPORT   FAIR      69  64  84 SE5       29.84S
SAN DIEGO      MOCLDY    70  63  78 CALM      29.87S
BURBANK        FAIR      72  61  68 E5        29.85S
ONTARIO        FAIR      70  59  68 CALM      29.86S
RIVERSIDE      FAIR      71  59  65 CALM      29.86S
PALM SPRINGS   FAIR      85  57  38 CALM      29.74R
EL CENTRO NAS  FAIR      84  42  22 W9        29.72S
IMPERIAL       FAIR      85  46  25 W3        29.70R
BLYTHE         FAIR      90  50  25 S6        29.72R
NEEDLES        FAIR      94  41  16 SW9       29.74R
$$

NVZ020-UTZ003-311100-
SOUTHERN NEVADA-UTAH

CITY           SKY/WX    TMP DP  RH WIND       PRES   REMARKS
LAS VEGAS      FAIR      84  43  23 CALM      29.79R
SALT LAKE CITY MOCLDY    66  44  45 NE9       30.03R
$$

NMZ009-TXZ055-311100-
NEW MEXICO-WEST TEXAS

CITY           SKY/WX    TMP DP  RH WIND       PRES   REMARKS
ALBUQUERQUE    CLEAR     68  48  48 E7        30.14R
EL PASO        FAIR      75  48  38 CALM      30.03S
$$


........................KEY........................
SKY/WX - SKY CONDITION/WEATHER
TMP    - TEMPERATURE IN FAHRENHEIT
DP     - DEW POINT IN FAHRENHEIT
RH     - RELATIVE HUMIDITY IN PERCENT
WIND   - DIRECTION AND SPEED IN MILES PER HOUR (MPH)
VRB    - VARIABLE WIND DIRECTION
PRES   - MEAN SEA LEVEL PRESSURE IN INCHES OF MERCURY
         F - FALLING PRESSURE   R - RISING PRESSURE
         S - STEADY PRESSURE
VSB    - VISIBILITY IN MILES
HX     - HEAT INDEX IN FAHRENHEIT
WCI    - WIND CHILL INDEX IN FAHRENHEIT
TC     - TEMPERATURE IN CELSIUS WHICH IS ALSO KNOWN AS
         TEMPERATURE IN CENTIGRADE
AFB    - AIR FORCE BASE
         LUKE AFB IS LUKE AIR FORCE BASE
         DAVIS-MONTHAN IS DAVIS-MONTHAN AIR FORCE BASE
NAS    - NAVAL AIR STATION
         EL CENTRO NAS IS EL CENTRO NAVAL AIR STATION
N/A    - NOT AVAILABLE




USA.gov is the U.S. government's official web portal to all federal, state and local government web resources and services.